Location: Fort Wayne
(41.1310°N, 85.1290°W)
Time: 14:30:36
(UTC-04:00)

Cosmos 1000 Rocket - Visible Passes

Search period start: 20 August 2014 00:00
Search period end: 30 August 2014 00:00
Orbit: 954 x 992 km, 82.9° (Epoch: 20 August)

Date Brightness Start Highest point End Pass type
(mag) Time Alt. Az. Time Alt. Az. Time Alt. Az.
20 Aug 6.8 00:12:04 10° WSW 00:16:15 18° WNW 00:20:26 10° NNW visible
20 Aug 5.9 21:06:19 10° ESE 21:10:25 18° E 21:14:30 10° NE visible
20 Aug 4.8 22:49:32 14° SSW 22:55:03 67° W 23:01:22 10° N visible
21 Aug 5.2 21:29:17 10° SSE 21:34:48 33° E 21:40:19 10° NNE visible
21 Aug 5.8 23:14:11 10° SW 23:20:00 38° WNW 23:25:50 10° N visible
22 Aug 4.6 21:53:11 10° S 21:59:21 59° E 22:05:32 10° NNE visible
22 Aug 6.6 23:40:23 10° WSW 23:45:07 22° WNW 23:49:52 10° NNW visible
23 Aug 4.6 22:17:45 10° S 22:24:04 80° W 22:30:24 10° N visible
24 Aug 7.2 00:08:10 10° W 00:10:26 12° WNW 00:12:43 10° NW visible
24 Aug 5.4 20:58:47 10° SE 21:03:56 27° E 21:09:05 10° NNE visible
24 Aug 5.5 22:42:56 10° SSW 22:48:57 45° WNW 22:54:59 10° N visible
25 Aug 4.7 21:22:25 10° SSE 21:28:26 48° E 21:34:27 10° NNE visible
25 Aug 6.4 23:08:51 10° SW 23:14:00 26° WNW 23:19:11 10° NNW visible
26 Aug 4.5 21:46:47 10° S 21:53:06 86° E 21:59:25 10° N visible
26 Aug 7.1 23:35:53 10° W 23:39:15 15° WNW 23:42:38 10° NNW visible
27 Aug 5.2 22:11:46 10° SSW 22:17:55 55° W 22:24:05 10° N visible
28 Aug 5.0 20:51:44 10° SSE 20:57:32 40° E 21:03:19 10° NNE visible
28 Aug 6.2 22:37:25 10° SW 22:42:55 31° WNW 22:48:26 10° NNW visible
29 Aug 4.5 21:15:52 10° S 21:22:08 72° E 21:28:24 10° NNE visible
29 Aug 7.0 23:04:00 10° WSW 23:08:06 18° WNW 23:12:12 10° NNW visible
